Location: Black Mountain Trail
(44.0548°N, 71.9106°W)
Time: 05:18:16
(UTC+00:00)

Daily predictions for brighter satellites

Satellite Brightness Start Highest point End
(mag) Time Altitude Azimuth Time Altitude Azimuth Time Altitude Azimuth
NOSS 2-3 (C) 3.2 00:02:56 10° SW 00:06:35 85° NW 00:10:36 10° NE
Resurs 1-3 3.6 00:02:59 10° SSE 00:07:20 86° E 00:11:43 10° NNW
Meteor 2-10 Rocket 4.5 00:05:13 10° SSW 00:10:06 52° WNW 00:15:01 10° N
Cosmos 2218 Rocket 4.3 00:03:53 10° N 00:10:06 49° ENE 00:16:14 10° SSE
IKONOS-2 4.5 00:05:55 10° NNE 00:10:07 65° ESE 00:14:18 10° S
NOSS 2-3 (D) 3.3 00:08:05 10° SW 00:11:44 82° NW 00:15:45 10° NE
ATLAS 3B R/B 3.8 00:07:13 10° SSE 00:12:11 21° ESE 00:17:22 10° ENE
Cosmos 1025 Rocket 3.3 00:08:24 10° N 00:12:39 49° ENE 00:16:53 10° SSE
BREEZE-M R/B 3.7 00:11:53 10° WNW 00:14:28 27° NNW 00:16:38 10° NE
Okean O Rocket 2.0 00:13:05 10° SE 00:17:10 43° ENE 00:21:19 10° N
USA 281 3.6 00:13:12 10° SE 00:19:26 48° ENE 00:25:41 10° NNW
NOSS 2-2 (E) 4.1 00:17:22 10° WSW 00:20:27 43° NW 00:23:28 10° NNE
Resurs 01 Rocket 1.9 00:18:27 10° SSE 00:22:42 50° ENE 00:26:59 10° N
Cosmos 1975 Rocket 3.7 00:20:27 10° N 00:24:27 35° ENE 00:28:04 12° SE
CARTOSAT-1 3.9 00:21:47 10° SE 00:25:53 47° ENE 00:30:00 10° N
Cosmos 1656 Rocket 4.0 00:21:08 10° SSW 00:26:40 72° WNW 00:32:10 10° NNE
Cosmos 1302 Rocket 4.0 00:22:43 10° S 00:27:56 71° ESE 00:33:10 10° NNE
Cosmos 1346 Rocket 2.6 00:24:20 10° S 00:28:09 71° E 00:31:58 10° NNE
SJ-6B 3.8 00:25:54 10° S 00:29:43 50° W 00:33:36 10° NNW
Meteor 1-21 Rocket 4.3 00:24:09 10° N 00:30:04 70° ENE 00:35:59 10° SSE
Cosmos 1328 3.6 00:28:09 10° N 00:31:57 81° E 00:35:44 10° S
OAO 3 Rocket 4.4 00:28:42 10° WSW 00:32:52 28° S 00:35:52 16° SE
NOSS 2-2 (D) 3.9 00:31:39 10° SW 00:34:49 46° NW 00:37:52 10° NNE
SL-27 R/B 3.9 00:36:13 10° NNE 00:38:02 15° ENE 00:38:26 15° ENE
Cosmos 1782 Rocket 3.5 00:35:22 10° S 00:39:42 78° E 00:44:07 10° N
Cosmos 864 Rocket 4.5 00:34:24 10° N 00:40:39 84° E 00:46:55 10° S
Cosmos 1892 3.7 00:38:03 10° NNW 00:41:29 44° W 00:44:52 10° SSW
ATLAS 5 CENTAUR R/B 1.8 00:41:14 10° S 00:44:05 27° ESE 00:47:07 10° ENE
Cosmos 968 Rocket 4.1 00:40:50 10° NNW 00:45:48 54° WSW 00:50:47 10° S
USA 186 2.6 00:44:16 10° S 00:47:16 48° W 00:50:14 10° NNW
SPOT 5 3.9 00:45:36 19° ESE 00:48:33 33° ENE 00:53:15 10° N
CZ-4 R/B 3.0 00:45:58 10° SSW 00:49:34 33° W 00:53:08 10° NNW
Meteor 1-11 4.4 00:44:27 10° N 00:50:00 54° ENE 00:54:15 17° SSE
SL-4 R/B 3.4 00:47:11 10° W 00:50:30 31° NNW 00:53:40 10° NE
USA 129 2.2 00:50:54 10° N 00:53:37 62° WNW 00:54:47 22° SSW
Cosmos 1455 3.0 00:52:02 10° SSW 00:55:30 49° W 00:59:00 10° N
ERS-1 Rocket 4.1 00:56:20 21° E 00:58:05 26° ENE 01:02:10 10° N
Cosmos 1953 4.3 01:00:58 10° SW 01:04:20 29° WNW 01:07:43 10° NNW
Cosmos 1300 Rocket 3.8 01:01:56 10° SSW 01:06:15 69° W 01:10:39 10° N
MOS 1 4.3 01:02:44 21° SSE 01:06:30 64° ENE 01:12:09 10° N
In-Cosmos 22 Rocket 4.1 01:03:10 10° N 01:08:37 90° ESE 01:13:01 16° S
CSL-04 Rocket 4.2 01:04:26 10° S 01:09:53 59° WSW 01:15:20 10° NNW
Cosmos 2181 Rocket 4.4 01:06:03 10° SSW 01:12:10 65° W 01:18:23 10° N
SJ 16-02 2.2 01:09:53 10° NNW 01:14:02 46° WSW 01:17:18 15° S
Okean 2 Rocket 3.7 01:14:49 35° ESE 01:15:13 36° E 01:19:20 10° NNE
Cosmos 2297 Rocket 3.8 01:11:46 10° N 01:15:47 19° NE 01:17:48 16° ENE
NOSS 3-1 (A) 3.3 01:12:28 10° S 01:17:00 42° ESE 01:22:16 10° NE
IRS-1C Rocket 4.2 01:15:52 31° SE 01:18:16 61° ENE 01:23:29 10° N
Cosmos 2369 Rocket 3.7 01:13:31 10° SW 01:18:47 38° NW 01:24:03 10° NNE
Cosmos 371 Rocket 4.3 01:14:48 10° N 01:18:59 29° ENE 01:19:52 27° E
CZ-4C R/B 3.0 01:16:01 10° N 01:19:29 78° WNW 01:21:32 22° SSW
Cosmos 1992 Rocket 4.1 01:17:25 10° SSW 01:22:38 79° WNW 01:27:52 10° NNE
MetOp-B 4.1 01:23:41 33° SSE 01:26:06 72° ENE 01:31:28 10° N
Cosmos 2098 Rocket 3.8 01:21:46 10° SSW 01:27:08 62° W 01:31:32 10° N
Spot 2 Rocket 4.1 01:27:22 34° E 01:28:18 37° ENE 01:32:55 10° N
Sich 1 Rocket 3.6 01:30:20 51° ESE 01:30:39 52° E 01:34:58 10° NNE
Okean-O 3.0 01:28:34 27° S 01:30:52 62° WSW 01:35:15 10° NNW
Terra 2.3 01:30:44 39° E 01:31:20 41° ENE 01:35:45 10° N
USA 234 4.4 01:28:21 15° S 01:32:53 33° SW 01:38:40 10° WNW
NOSS 3-1 (C) 3.5 01:35:36 10° SW 01:40:26 62° NW 01:46:16 10° NNE
IRS-1A Rocket 4.3 01:38:01 37° SSE 01:40:31 83° ENE 01:46:27 10° NNW
USA 245 4.0 01:45:21 49° SE 01:46:52 74° ENE 01:51:51 10° N
Ariane Rocket 3.1 01:47:05 52° E 01:47:40 56° ENE 01:52:35 10° N
Cosmos 1241 Rocket 4.5 01:41:37 10° NNW 01:47:54 70° NE 01:49:45 47° ESE
Okean 1 Rocket 3.6 01:52:36 45° NE 01:52:36 45° NE 01:56:03 10° NNE
Landsat 4 4.0 01:53:50 58° WNW 01:53:50 58° WNW 01:56:54 10° NNW
Okean O Rocket 4.0 01:50:37 10° SW 01:53:39 18° W 01:56:43 10° NW
SPOT 3 Rocket 3.6 01:53:53 55° E 01:54:23 57° ENE 01:59:29 10° N
Nadezhda 3 Rocket 4.3 01:50:00 10° SSW 01:56:02 65° W 02:02:11 10° N
Cosmos 1486 Rocket 4.1 01:53:17 10° NNW 01:58:31 72° WSW 01:59:33 55° S
Resurs 01 Rocket 4.2 01:56:40 10° SW 01:59:26 16° W 02:02:13 10° NW
ATLAS 3B R/B 2.8 01:54:55 10° SW 02:01:58 85° NW 02:09:33 10° NE
USA 281 4.4 01:59:34 17° SSW 02:04:01 36° WSW 02:10:01 10° NW
Cosmos 1605 Rocket 4.0 02:03:44 10° N 02:10:06 62° E 02:10:51 58° ESE
Iridium 4 Rocket 3.6 02:09:52 64° S 02:10:45 86° W 02:16:29 10° N
Cosmos 1932 4.3 02:06:49 10° NNW 02:13:05 84° NE 02:13:59 67° SE
SPOT 5 4.3 02:24:45 29° SW 02:26:27 35° W 02:31:20 10° NNW
ATLAS 5 CENTAUR R/B 3.3 02:25:07 10° W 02:27:56 24° NW 02:31:03 10° NNE
SL-4 R/B 4.0 02:27:07 10° NW 02:29:13 21° NNW 02:29:13 21° NNW
Cosmos 2227 Rocket 3.1 02:26:07 10° N 02:31:09 35° NE 02:31:09 35° NE
ERS-1 Rocket 3.8 02:36:16 40° WSW 02:36:37 41° W 02:41:21 10° NNW
Cosmos 1727 Rocket 4.4 02:39:33 51° ENE 02:39:33 51° ENE 02:44:46 10° NNE
ARGOS Delta rocket 4.2 02:42:13 71° WNW 02:42:13 71° WNW 02:47:14 10° NNW
Cosmos 1697 Rocket 4.3 02:48:52 24° NE 02:48:52 24° NE 02:51:11 10° NE
CZ-4C R/B 3.5 02:42:49 10° NNW 02:49:35 47° NE 02:51:18 41° ENE
ARIANE 5 R/B 4.4 02:57:06 26° NNE 02:57:06 26° NNE 02:59:22 10° N
Cosmos 2297 Rocket 2.5 02:54:50 10° NNW 02:59:36 63° NW 02:59:36 63° NW
COSMOS 2455 3.0 02:55:34 10° NNW 03:00:56 66° N 03:00:56 66° N
Cosmos 2219 4.3 03:02:36 10° NNW 03:06:58 36° NE 03:06:58 36° NE
Terra 3.7 03:09:26 22° W 03:09:26 22° W 03:12:48 10° NW
USA 229 DEB 3.7 03:16:02 68° N 03:16:02 68° N 03:22:05 10° NE
USA 229 3.7 03:16:14 68° N 03:16:14 68° N 03:22:13 10° NE
CENTAUR R/B 3.8 03:18:21 10° NNW 03:26:14 49° NE 03:28:19 43° E
Cosmos 2263 Rocket 3.4 03:30:04 10° NNW 03:34:00 35° NNE 03:34:00 35° NNE
Cosmos 1459 Rocket 4.5 03:34:27 10° N 03:39:06 55° NNW 03:39:06 55° NNW
ATLAS CENTAUR R/B 4.3 03:36:56 10° NNW 03:37:26 13° NNW 03:37:26 13° NNW
Cosmos 2227 Rocket 3.9 04:10:10 10° NW 04:12:58 26° WNW 04:12:58 26° WNW
Cosmos 1980 Rocket 3.6 04:21:01 34° NNE 04:21:01 34° NNE 04:24:11 10° NNE
USA 267 4.4 04:17:20 23° ENE 04:20:34 37° NNE 04:26:29 10° NW
Cosmos 1697 Rocket 4.3 04:30:31 30° NW 04:30:31 30° NW 04:34:55 10° N
NOSS 3-2 (A) 4.1 04:29:43 10° NW 04:36:40 74° NNE 04:36:40 74° NNE
CZ-4C R/B 3.7 04:31:08 10° NW 04:36:23 44° WNW 04:36:23 44° WNW
Cosmos 2333 Rocket 4.2 05:10:52 21° ENE 05:10:52 21° ENE 05:13:07 10° NE
Cosmos 2360 Rocket 4.0 05:15:07 24° ENE 05:15:07 24° ENE 05:17:40 10° NE
CENTAUR R/B 3.7 05:09:03 10° NW 05:15:27 48° W 05:15:27 48° W
Cosmos 2263 Rocket 4.4 05:14:17 10° NW 05:15:40 17° NW 05:15:40 17° NW
Cosmos 2322 Rocket 3.6 05:24:53 32° NE 05:24:53 32° NE 05:27:55 10° NNE
USA 215 3.6 05:22:50 10° NE 05:28:03 60° NE 05:28:03 60° NE
Cosmos 2219 Rocket 4.1 05:32:27 21° ENE 05:32:27 21° ENE 05:35:00 10° NE
SL-16 R/B 3.3 05:40:46 41° N 05:40:46 41° N 05:44:28 10° NNE
NOSS 3-2 (C) 4.1 05:42:16 10° NW 05:48:47 69° WNW 05:48:47 69° WNW
ADEOS II 4.2 05:52:48 10° NE 05:55:52 17° E 05:55:52 17° E
USA 267 3.6 06:04:36 57° NW 06:04:36 57° NW 06:09:42 10° NW
Cosmos 1980 Rocket 4.5 06:02:44 14° NW 06:03:36 14° NW 06:06:34 10° N
Cosmos 1844 Rocket 4.3 06:00:32 10° NNW 06:02:56 26° NW 06:02:56 26° NW
Cosmos 1634 Rocket 4.3 06:00:25 10° N 06:06:02 63° NE 06:06:02 63° NE
CZ-2D R/B 3.5 06:04:14 10° NNE 06:08:14 32° ENE 06:08:14 32° ENE
Timation 2 Rocket 4.5 06:02:43 10° NNW 06:07:46 55° NNW 06:07:46 55° NNW
SL-16 R/B 4.3 06:06:47 14° ESE 06:10:53 27° ENE 06:15:56 10° N
Cosmos 2221 4.4 06:30:11 27° NNE 06:30:11 27° NNE 06:32:11 10° N
COSMOS 2428 3.8 06:28:39 37° E 06:28:39 37° E 06:33:23 10° NE
CZ-2C R/B 3.2 06:35:48 53° E 06:36:02 53° ENE 06:41:17 10° N
Cosmos 2237 Rocket 4.3 06:34:52 16° ESE 06:36:06 17° E 06:39:37 10° ENE
Lacrosse 4 Rocket 4.2 06:38:47 11° NNW 06:38:47 11° NNW 06:39:14 10° NNW
BlueWalker 3 4.4 06:41:27 22° NNE 06:41:27 22° NNE 06:43:48 10° ENE
Lacrosse 5 2.7 06:42:19 48° N 06:42:19 48° N 06:46:24 10° NE
CZ-2C R/B 4.0 06:37:39 10° NNE 06:42:28 40° E 06:42:29 40° E
Cosmos 44 Rocket 4.0 06:44:53 56° NNE 06:44:53 56° NNE 06:48:58 10° NE
Cosmos 2322 4.0 06:44:17 61° E 06:44:17 61° E 06:49:30 10° NNE
NPP 3.9 06:39:22 10° NNE 06:44:02 67° NNE 06:44:02 67° NNE
ALOS 4.1 06:41:38 10° NE 06:45:17 23° E 06:45:36 22° E
Cosmos 489 Rocket 4.4 06:41:34 10° NNW 06:47:25 77° NW 06:47:25 77° NW
USA 238 DEB 4.1 06:41:54 10° NW 06:48:03 55° W 06:48:03 55° W
USA 238 4.1 06:41:59 10° NW 06:48:16 57° W 06:48:16 57° W
Resurs 1-4 Rocket 2.3 06:44:23 10° NNE 06:49:06 69° NE 06:49:06 69° NE
Cosmos 2333 Rocket 2.9 06:52:51 42° NW 06:52:51 42° NW 06:57:45 10° NNE
Cosmos 2360 Rocket 3.2 06:56:51 35° NW 06:56:51 35° NW 07:01:40 10° N
Cosmos 2279 Rocket 3.9 06:50:33 10° N 06:56:36 77° WNW 06:56:36 77° WNW
Nadezhda 4 Rocket 4.3 06:59:27 49° SE 07:00:42 58° E 07:06:42 10° NNE
Cosmos 972 Rocket 4.2 07:02:51 66° NNW 07:02:51 66° NNW 07:07:33 10° NNE
IRIDIUM 106 4.4 07:00:24 10° N 07:05:06 72° NNW 07:05:06 72° NNW
Cosmos 2322 Rocket 3.7 07:06:40 24° NW 07:06:50 24° NW 07:11:22 10° N
Cosmos 2278 Rocket 3.4 07:02:48 10° NNW 07:08:11 42° ENE 07:13:31 10° SE
Cosmos 1538 Rocket 4.3 07:08:15 60° ESE 07:08:29 61° ESE 07:13:45 10° NNE
IDEFIX/ARIANE 42P 2.9 07:04:18 10° N 07:08:47 53° NW 07:08:47 53° NW
USA 215 4.3 07:06:02 10° NE 07:11:55 37° NNW 07:15:22 22° WNW
GP-B 4.0 07:08:02 10° NNE 07:12:17 44° E 07:12:34 43° E
Cosmos 2219 Rocket 2.6 07:14:08 48° WNW 07:14:08 48° WNW 07:19:29 10° NNE
COBE Rocket 4.2 07:13:27 10° N 07:17:20 55° NNW 07:17:20 55° NNW
Gbstr 26 Del rocket 3.5 07:20:36 54° NNE 07:20:36 54° NNE 07:23:44 10° NE
MSX 4.0 07:17:21 10° N 07:22:59 55° WNW 07:23:18 55° W
SL-16 R/B 4.3 07:22:36 13° WNW 07:24:01 14° NW 07:26:51 10° N
Cosmos 1461 4.2 07:22:18 10° NNW 07:25:54 36° NE 07:29:26 10° ESE
NOSS 3-4 (A) 4.1 07:26:04 35° WNW 07:27:06 38° NW 07:32:44 10° NNE
NOSS 3-4 (C) 4.0 07:26:07 35° WNW 07:27:08 38° NW 07:32:48 10° NNE
RESURS DK-1 2.7 07:28:45 59° ENE 07:28:45 59° ENE 07:32:18 10° NNE
CZ-2C R/B 4.5 07:26:51 10° NE 07:31:04 25° E 07:35:13 10° SSE
Cosmos 1151 Rocket 4.2 07:31:09 32° SE 07:32:19 39° E 07:36:20 10° NNE
BREEZE-M DEB (TANK) 4.0 07:31:47 34° NNW 07:32:47 43° N 07:40:30 10° E
ADEOS II 2.0 07:31:04 10° N 07:36:16 64° WNW 07:36:45 61° WSW
FENGYUN 3A 3.6 07:35:27 10° N 07:40:52 69° WNW 07:41:48 57° SW
Cosmos 1092 Rocket 4.2 07:40:20 27° SSE 07:43:46 66° E 07:49:51 10° NNE
Cosmos 1408 Rocket 3.9 07:41:24 10° NNW 07:44:54 50° NW 07:44:54 50° NW
NOSS 2-2 (E) 4.2 07:41:53 10° NW 07:46:29 76° NE 07:53:03 10° SE
CZ-2D R/B 2.9 07:44:15 10° N 07:49:03 35° WNW 07:49:32 34° WNW
EO 1 Delta rocket 4.1 07:44:47 10° NNE 07:49:24 63° E 07:51:24 33° SSE
Cosmos 2026 Rocket 4.1 07:47:38 26° S 07:51:18 76° E 07:57:40 10° N
Envisat 3.8 07:46:28 10° NNE 07:51:22 47° E 07:54:41 20° SSE
SL-16 R/B 2.5 07:51:52 38° SSW 07:54:03 57° WSW 08:00:11 10° NNW
NOSS 2-2 (D) 4.2 07:56:32 10° NNW 08:01:02 73° NE 08:07:27 10° SE
Cosmos 1805 Rocket 3.4 07:57:56 10° NNW 08:02:15 65° W 08:02:58 55° SW
Cosmos 1500 Rocket 3.7 07:58:28 10° NNW 08:02:49 52° W 08:03:03 52° WSW
UNK 3.7 08:02:07 48° SSW 08:03:05 60° WSW 08:07:38 10° NNW
Meteor 1-27 Rocket 3.7 08:04:14 35° SSW 08:06:42 69° WNW 08:12:24 10° N
Cosmos 1943 Rocket 2.5 08:02:08 10° NNW 08:07:47 68° ENE 08:13:26 10° SSE
CZ-4 R/B 3.8 08:03:45 10° NNE 08:08:31 82° ESE 08:10:51 30° S
Thor Agena Rocket 4.3 08:03:55 10° NNE 08:08:48 49° E 08:13:17 12° S
Meteor 2-4 Rocket 4.2 08:06:32 12° S 08:11:23 56° E 08:16:46 10° NNE
Cosmos 1627 Rocket 4.4 08:08:18 25° SSW 08:12:11 78° W 08:18:35 10° N
COSMOS 2428 3.5 08:10:38 29° W 08:12:25 36° NW 08:17:39 10° N
Cosmos 1733 2.9 08:11:44 10° NNW 08:15:19 63° W 08:15:45 56° SW
NOAA 11 4.5 08:10:17 10° NNE 08:15:44 67° ESE 08:20:31 13° S
CZ-2C R/B 4.0 08:17:17 22° W 08:17:17 22° W 08:20:44 10° NW
YAOGAN 6 3.2 08:14:45 10° NNE 08:17:56 46° E 08:19:45 22° SSE
Cosmos 2237 Rocket 2.2 08:16:42 31° SW 08:19:27 73° WNW 08:25:10 10° NNE
BlueWalker 3 2.3 08:15:55 11° NW 08:19:29 62° NNE 08:23:16 10° ESE
Cosmos 1980 3.7 08:18:03 31° SW 08:20:45 67° WNW 08:26:25 10° NNE
Meteor 1-11 Rocket 4.2 08:16:49 10° NNW 08:21:55 37° W 08:23:44 29° SW
CZ-2C R/B 4.1 08:17:50 10° N 08:22:08 28° WNW 08:23:30 25° W
Cosmos 1867 4.0 08:17:29 10° NW 08:22:32 38° WSW 08:27:30 10° S
ALOS 2.8 08:18:19 10° N 08:22:38 39° WNW 08:23:56 32° WSW
Cosmos 2112 Rocket 4.1 08:20:47 20° S 08:24:30 76° ESE 08:29:52 10° NNE
Lacrosse 5 3.8 08:21:30 11° WNW 08:25:17 22° NNW 08:29:16 10° NE
ATLAS 2AS CENTAUR R/B 3.4 08:19:52 14° SSW 08:26:14 55° ESE 08:33:13 10° NE
Sich 1 3.6 08:23:45 10° NNW 08:27:35 34° W 08:28:05 33° WSW
Resurs 1-4 Rocket 3.9 08:25:45 10° NNW 08:28:50 16° WNW 08:30:10 15° WNW
DMSP B5D2-2 4.4 08:25:12 10° SSE 08:30:20 67° ENE 08:35:30 10° N
Cosmos 1340 Rocket 2.6 08:28:57 27° SSW 08:30:57 82° WNW 08:34:51 10° N
Cosmos 1328 Rocket 3.6 08:31:29 13° S 08:35:26 81° E 08:39:54 10° N
Cosmos 1805 3.0 08:32:09 10° NNW 08:35:50 68° W 08:39:20 11° S
Cosmos 2344 4.3 08:27:27 10° NW 08:36:06 60° WSW 08:48:11 10° SSE
Cosmos 1743 Rocket 4.4 08:33:06 10° NNW 08:36:50 29° W 08:37:38 27° WSW
IRS-1D 3.5 08:35:09 10° NNE 08:40:16 88° ESE 08:45:28 10° SSW
SWAS 4.3 08:36:12 10° NNW 08:40:25 81° WSW 08:44:37 10° SSE
Cosmos 1633 Rocket 2.9 08:39:36 10° N 08:43:58 85° W 08:48:19 10° S
NOSS 2-2 (C) 4.2 08:43:41 10° NW 08:48:18 53° SW 08:54:46 10° SSE
Cosmos 1680 Rocket 3.7 08:47:51 18° SW 08:51:39 55° WNW 08:56:53 10° NNE
Cosmos 2278 Rocket 2.9 08:47:09 10° NW 08:52:06 31° WSW 08:57:00 10° SSW
Cosmos 1420 Rocket 4.1 08:55:08 10° NNW 09:00:14 54° WSW 09:05:22 10° S
Iridium 51 3.7 08:59:09 10° S 09:02:31 78° W 09:05:53 10° N
Cosmos 1461 3.9 09:01:02 10° WNW 09:03:57 21° WSW 09:06:51 10° SSW
Cosmos 2056 Rocket 3.6 08:58:52 10° NNW 09:04:10 60° WSW 09:09:29 10° S
RESURS DK-1 4.4 09:04:22 11° W 09:06:27 14° NW 09:08:43 10° NNW
Gbstr 26 Del rocket 4.3 09:03:16 10° WNW 09:06:48 27° N 09:10:04 10° NE
Cosmos 494 Rocket 4.1 09:04:09 10° SSW 09:09:19 80° ESE 09:14:29 10° NNE
CZ-2C R/B 2.9 09:04:26 10° N 09:09:21 45° WNW 09:14:13 10° SW
Cosmos 1553 Rocket 4.2 09:03:53 10° NNW 09:09:56 52° W 09:15:53 10° SSW
SL-16 R/B 2.2 09:04:21 10° SSW 09:10:00 90° E 09:15:42 10° NNE
NOSS 3-1 (C) 4.3 09:04:07 10° NW 09:11:33 82° NE 09:20:34 10° SE
Cosmos 1674 3.2 09:09:05 10° S 09:12:26 55° E 09:15:48 10° NNE
PAYLOAD A 4.3 09:08:09 10° N 09:12:53 46° WNW 09:17:26 10° SW
Cosmos 1939 Rocket 4.0 09:11:49 10° NNE 09:15:26 43° E 09:19:03 10° S
Cosmos 1766 3.0 09:12:07 10° NNW 09:15:48 73° W 09:19:27 10° S
USA 308 3.1 09:12:46 10° SW 09:16:26 55° SE 09:20:17 10° ENE
Cosmos 1624 Rocket 4.2 09:11:31 10° NNW 09:16:30 46° WSW 09:21:26 10° S
Cosmos 1656 Rocket 4.1 09:11:12 10° NNW 09:16:35 65° ENE 09:21:57 10° SE
Cosmos 1340 3.4 09:16:09 10° NW 09:19:05 26° W 09:21:59 10° SSW
Cosmos 921 Rocket 3.5 09:16:48 10° SW 09:20:47 40° WNW 09:24:53 10° N
Cosmos 1975 3.9 09:18:54 10° NW 09:21:58 23° W 09:25:03 10° SW
Cosmos 1626 2.5 09:19:10 10° SW 09:22:12 34° WNW 09:25:16 10° N
KORONAS-FOTON 4.1 09:20:10 10° S 09:23:48 66° E 09:27:26 10° NNE
Intercosmos 25 Rocket 4.5 09:20:51 10° NW 09:23:53 25° W 09:27:51 10° SSW
Cosmos 1515 Rocket 3.6 09:20:45 10° SSW 09:25:10 64° W 09:29:36 10° N
Cosmos 1470 Rocket 3.9 09:25:52 10° NNW 09:30:02 43° W 09:34:13 10° SSW
Envisat 4.3 09:26:04 10° NNW 09:30:02 24° WNW 09:33:59 10° WSW
ATLAS 5 CENTAUR R/B 2.2 09:25:07 10° NW 09:30:11 88° NE 09:36:29 10° SE
CBERS-1 4.0 09:25:18 10° NNE 09:30:25 79° WNW 09:35:30 10° SSW
Cosmos 1484 Rocket 2.5 09:27:28 10° N 09:31:04 69° WNW 09:34:37 10° SSW
ATLAS 3B R/B 3.6 09:25:53 10° NNW 09:33:39 64° NE 09:41:19 10° SE
H-2A R/B 2.6 09:35:53 10° NNE 09:39:15 74° E 09:42:34 10° S
BREEZE-M DEB (TANK) 2.4 09:35:12 10° W 09:39:31 46° NNW 09:41:41 10° NE
